Tracking 19246 objects as of 20-Aug-2018
HD Live streaming from Space Station
objects crossing your sky now

FENGYUN 1C DEB

Track FENGYUN 1C DEB now!
10-day predictions


NORAD ID: 30090
Int'l Code: 1999-025QT
Perigee: 774.1 km
Apogee: 864.3 km
Inclination: 99.4 °
Period: 101.1 minutes
Semi major axis: 7190 km
RCS: 0.0346 m2 (small)
Launch date: May 10, 1999
Source: People's Republic of China (PRC)
Launch site: Taiyaun Space Center, China (TSC)

Note: This is SATELLITE DEBRIS
aabbcc
Your satellite tracking list
Your tracking list is empty




NASA's NSSDC Master Catalog

Two Line Element Set (TLE):
1 30090U 99025QT  18231.59853237 +.00000132 +00000-0 +77708-4 0  9993
2 30090 099.3623 184.2735 0062671 159.9938 250.6760 14.23939901602052
Source of the keplerian elements: AFSPC